Home > Weather > Kawartha Lakes > Past weeks

Flag for Canada Weather for the Past 2 Weeks in Kawartha Lakes, Ontario, Canada

Now
53 °F

Cool.


Feels Like: 53 °F
Forecast: 38 / 71 °F
Wind: 3 mph from West

Location: Lagoon City

Current Time: May 6, 2016 at 11:09:08 AM

Latest Report: May 6, 2016 at 10:00 AM


Visibility: N/A

Pressure: 29.90 "Hg

Humidity: 64%

Dew Point: 41 °F

Location of Kawartha LakesLocation

Historic Weather in Kawartha Lakes — Graph

°F

Kawartha Lakes Temperature Yesterday

Maximum temperature yesterday: 64 °F (at 7:00 PM)
Minimum temperature yesterday: 42 °F (at 6:00 AM)
Average temperature yesterday: 51 °F

High & Low Weather Summary for the Past Weeks

 TemperatureHumidityPressure
High64 °F (May 5, 7:00 PM)100% (Apr 26, 9:00 AM)30.23 "Hg (Apr 26, 9:00 AM)
Low31 °F (Apr 23, 5:00 AM)25% (Apr 29, 5:00 PM)29.69 "Hg (May 4, 4:00 PM)
Average45 °F67%29.99 "Hg
* Reported Apr 21 10:00 AM — May 6 10:00 AM, Kawartha Lakes, Weather by CustomWeather, © 2016

Note: Actual official high and low records may vary slightly from our data, if they occured in-between our weather recording intervals... More about our weather records

Advertising

Kawartha Lakes Weather History for the Previous 24 Hours

Scroll right to see more
 ConditionsComfort  
Time TempWeatherWind HumidityBarometerVisibility
10:00 AM
Fri, May 6
53 °FCool.3 mph64%29.90 "HgN/A
9:00 AM53 °FCool.3 mph61%29.90 "HgN/A
8:00 AM48 °FCool.5 mph68%29.89 "HgN/A
7:00 AM45 °FCool.1 mph79%29.88 "HgN/A
6:00 AM42 °FQuite cool.2 mph88%29.86 "HgN/A
5:00 AM44 °FQuite cool.2 mph86%29.85 "HgN/A
4:00 AM45 °FQuite cool.3 mph82%29.84 "HgN/A
3:00 AM47 °FCool.3 mph73%29.83 "HgN/A
2:00 AM48 °FCool.3 mph76%29.83 "HgN/A
1:00 AM49 °FCool.9 mph72%29.82 "HgN/A
12:00 AM50 °FCool.10 mph73%29.82 "HgN/A
11:00 PM
Thu, May 5
51 °FCool.13 mph69%29.83 "HgN/A
10:00 PM55 °FCool.12 mph61%29.82 "HgN/A
9:00 PM56 °FRefreshingly cool.12 mph55%29.81 "HgN/A
8:00 PM58 °FRefreshingly cool.12 mph56%29.80 "HgN/A
7:00 PM64 °FMild.6 mph35%29.79 "HgN/A
6:00 PM52 °FCool.7 mph75%29.79 "HgN/A
5:00 PM53 °FCool.5 mph75%29.80 "HgN/A
4:00 PM56 °FCool.14 mph65%29.81 "HgN/A
3:00 PM51 °FCool.12 mph78%29.83 "HgN/A
2:00 PM52 °FCool.9 mph78%29.84 "HgN/A
1:00 PM53 °FCool.5 mph74%29.85 "HgN/A
12:00 PM53 °FCool.5 mph69%29.86 "HgN/A
11:00 AM53 °FCool.9 mph71%29.86 "HgN/A
Weather by CustomWeather, © 2016

See weather overviewHow to use our weather pages